Time,TemperatureF,DewpointF,PressureIn,WindDirection,WindDirectionDegrees,WindSpeedMPH,WindSpeedGustMPH,Humidity,HourlyPrecipIn,Conditions,Clouds,dailyrainin,SoftwareType,DateUTC
2013-06-12 00:00:00,57.7,41.2,30.22,SSW,202,2.0,2.0,54,0.00,,,0.00,Weather View 32 v70,2013-06-12 08:00:00,
2013-06-12 00:05:00,57.2,41.1,30.20,South,180,1.0,2.0,55,0.00,,,0.00,Weather View 32 v70,2013-06-12 08:05:00,
2013-06-12 00:10:00,57.2,41.1,30.20,South,180,1.0,2.0,55,0.00,,,0.00,Weather View 32 v70,2013-06-12 08:10:00,
2013-06-12 00:15:00,56.1,40.6,30.20,South,180,0.0,2.0,56,0.00,,,0.00,Weather View 32 v70,2013-06-12 08:15:00,
2013-06-12 00:25:00,55.6,40.6,30.19,SW,225,1.0,2.0,57,0.00,,,0.00,Weather View 32 v70,2013-06-12 08:25:00,
2013-06-12 00:30:00,55.0,40.5,30.19,South,180,1.0,2.0,58,0.00,,,0.00,Weather View 32 v70,2013-06-12 08:30:00,
2013-06-12 00:35:00,54.5,40.4,30.19,South,180,0.0,2.0,59,0.00,,,0.00,Weather View 32 v70,2013-06-12 08:35:00,
2013-06-12 00:40:00,54.1,40.1,30.19,South,180,0.0,2.0,59,0.00,,,0.00,Weather View 32 v70,2013-06-12 08:40:00,
2013-06-12 00:50:00,53.8,40.2,30.20,WSW,248,1.0,2.0,60,0.00,,,0.00,Weather View 32 v70,2013-06-12 08:50:00,
2013-06-12 00:55:00,53.4,39.9,30.20,South,180,0.0,2.0,60,0.00,,,0.00,Weather View 32 v70,2013-06-12 08:55:00,
2013-06-12 01:00:00,53.1,39.5,30.20,SE,135,0.0,2.0,60,0.00,,,0.00,Weather View 32 v70,2013-06-12 09:00:00,
2013-06-12 01:05:00,52.7,39.6,30.20,SE,135,0.0,1.0,61,0.00,,,0.00,Weather View 32 v70,2013-06-12 09:05:00,
2013-06-12 01:10:00,52.2,38.7,30.20,SE,135,0.0,1.0,60,0.00,,,0.00,Weather View 32 v70,2013-06-12 09:10:00,
2013-06-12 01:15:00,51.6,38.6,30.20,SSE,158,0.0,1.0,61,0.00,,,0.00,Weather View 32 v70,2013-06-12 09:15:00,
2013-06-12 01:20:00,51.4,38.8,30.20,SE,135,0.0,1.0,62,0.00,,,0.00,Weather View 32 v70,2013-06-12 09:20:00,
2013-06-12 01:25:00,50.9,38.3,30.18,SSE,158,0.0,1.0,62,0.00,,,0.00,Weather View 32 v70,2013-06-12 09:25:00,
2013-06-12 01:35:00,50.5,38.0,30.18,SSE,158,0.0,1.0,62,0.00,,,0.00,Weather View 32 v70,2013-06-12 09:35:00,
2013-06-12 01:40:00,50.2,37.6,30.18,SSE,158,0.0,1.0,62,0.00,,,0.00,Weather View 32 v70,2013-06-12 09:40:00,
2013-06-12 01:45:00,50.0,37.5,30.20,SSE,158,0.0,1.0,62,0.00,,,0.00,Weather View 32 v70,2013-06-12 09:45:00,
2013-06-12 01:50:00,49.8,37.7,30.20,SSE,158,0.0,1.0,63,0.00,,,0.00,Weather View 32 v70,2013-06-12 09:50:00,
2013-06-12 01:55:00,49.3,37.2,30.20,SSE,158,0.0,1.0,63,0.00,,,0.00,Weather View 32 v70,2013-06-12 09:55:00,
2013-06-12 02:00:00,48.9,37.3,30.20,SSE,158,0.0,0.0,64,0.00,,,0.00,Weather View 32 v70,2013-06-12 10:00:00,
2013-06-12 02:10:00,48.4,36.7,30.20,ESE,112,0.0,0.0,64,0.00,,,0.00,Weather View 32 v70,2013-06-12 10:10:00,
2013-06-12 02:15:00,47.8,36.2,30.20,ESE,112,0.0,0.0,64,0.00,,,0.00,Weather View 32 v70,2013-06-12 10:15:00,
2013-06-12 02:20:00,47.5,36.3,30.20,ESE,112,0.0,0.0,65,0.00,,,0.00,Weather View 32 v70,2013-06-12 10:20:00,
2013-06-12 02:25:00,47.7,36.5,30.20,ESE,112,0.0,0.0,65,0.00,,,0.00,Weather View 32 v70,2013-06-12 10:25:00,
2013-06-12 02:30:00,47.1,35.9,30.20,ESE,112,0.0,0.0,65,0.00,,,0.00,Weather View 32 v70,2013-06-12 10:30:00,
2013-06-12 02:35:00,46.9,36.2,30.20,ESE,112,0.0,0.0,66,0.00,,,0.00,Weather View 32 v70,2013-06-12 10:35:00,
2013-06-12 02:45:00,46.2,35.5,30.20,ESE,112,0.0,0.0,66,0.00,,,0.00,Weather View 32 v70,2013-06-12 10:45:00,
2013-06-12 02:50:00,46.2,35.9,30.20,ESE,112,0.0,0.0,67,0.00,,,0.00,Weather View 32 v70,2013-06-12 10:50:00,
2013-06-12 02:55:00,46.0,35.3,30.20,ESE,112,0.0,0.0,66,0.00,,,0.00,Weather View 32 v70,2013-06-12 10:55:00,
2013-06-12 03:00:00,45.9,35.9,30.20,SSE,158,0.0,0.0,68,0.00,,,0.00,Weather View 32 v70,2013-06-12 11:00:00,
2013-06-12 03:05:00,45.5,35.5,30.20,SSE,158,0.0,0.0,68,0.00,,,0.00,Weather View 32 v70,2013-06-12 11:05:00,
2013-06-12 03:15:00,45.5,35.9,30.20,SSE,158,0.0,0.0,69,0.00,,,0.00,Weather View 32 v70,2013-06-12 11:15:00,
2013-06-12 03:20:00,45.3,35.4,30.20,ENE,68,0.0,0.0,68,0.00,,,0.00,Weather View 32 v70,2013-06-12 11:20:00,
2013-06-12 03:31:00,45.1,35.6,30.19,NNW,338,0.0,0.0,69,0.00,,,0.00,Weather View 32 v70,2013-06-12 11:31:00,
2013-06-12 03:36:00,44.8,35.9,30.19,NNE,22,0.0,0.0,71,0.00,,,0.00,Weather View 32 v70,2013-06-12 11:36:00,
2013-06-12 03:41:00,44.8,35.9,30.19,NNE,22,0.0,0.0,71,0.00,,,0.00,Weather View 32 v70,2013-06-12 11:41:00,
2013-06-12 03:46:00,44.4,35.6,30.20,NNE,22,0.0,0.0,71,0.00,,,0.00,Weather View 32 v70,2013-06-12 11:46:00,
2013-06-12 03:51:00,44.2,35.8,30.20,NNE,22,0.0,0.0,72,0.00,,,0.00,Weather View 32 v70,2013-06-12 11:51:00,
2013-06-12 03:56:00,44.2,35.4,30.20,SE,135,0.0,0.0,71,0.00,,,0.00,Weather View 32 v70,2013-06-12 11:56:00,
2013-06-12 04:01:00,43.7,34.5,30.20,SE,135,1.0,1.0,70,0.00,,,0.00,Weather View 32 v70,2013-06-12 12:01:00,
2013-06-12 04:06:00,43.7,34.5,30.20,North,0,1.0,1.0,70,0.00,,,0.00,Weather View 32 v70,2013-06-12 12:06:00,
2013-06-12 04:11:00,43.3,34.6,30.20,North,0,0.0,1.0,71,0.00,,,0.00,Weather View 32 v70,2013-06-12 12:11:00,
2013-06-12 04:16:00,43.2,34.7,30.20,North,0,0.0,1.0,72,0.00,,,0.00,Weather View 32 v70,2013-06-12 12:16:00,
2013-06-12 04:21:00,42.8,34.7,30.20,ENE,68,0.0,1.0,73,0.00,,,0.00,Weather View 32 v70,2013-06-12 12:21:00,
2013-06-12 04:26:00,42.8,34.7,30.20,ENE,68,0.0,1.0,73,0.00,,,0.00,Weather View 32 v70,2013-06-12 12:26:00,
2013-06-12 04:31:00,42.6,34.6,30.20,SE,135,0.0,1.0,73,0.00,,,0.00,Weather View 32 v70,2013-06-12 12:31:00,
2013-06-12 04:36:00,42.6,34.2,30.20,ENE,68,0.0,1.0,72,0.00,,,0.00,Weather View 32 v70,2013-06-12 12:36:00,
2013-06-12 04:41:00,42.4,33.7,30.20,SE,135,0.0,1.0,71,0.00,,,0.00,Weather View 32 v70,2013-06-12 12:41:00,
2013-06-12 04:46:00,42.3,33.5,30.22,SE,135,0.0,1.0,71,0.00,,,0.00,Weather View 32 v70,2013-06-12 12:46:00,
2013-06-12 04:51:00,42.1,33.3,30.22,SE,135,0.0,1.0,71,0.00,,,0.00,Weather View 32 v70,2013-06-12 12:51:00,
2013-06-12 04:56:00,41.5,32.8,30.22,ESE,112,0.0,1.0,71,0.00,,,0.00,Weather View 32 v70,2013-06-12 12:56:00,
2013-06-12 05:01:00,41.5,33.2,30.22,NNE,22,0.0,1.0,72,0.00,,,0.00,Weather View 32 v70,2013-06-12 13:01:00,
2013-06-12 05:06:00,41.2,33.2,30.23,NNW,338,0.0,1.0,73,0.00,,,0.00,Weather View 32 v70,2013-06-12 13:06:00,
2013-06-12 05:11:00,41.2,33.5,30.23,NNW,338,0.0,0.0,74,0.00,,,0.00,Weather View 32 v70,2013-06-12 13:11:00,
2013-06-12 05:16:00,41.2,33.8,30.23,NNW,338,0.0,0.0,75,0.00,,,0.00,Weather View 32 v70,2013-06-12 13:16:00,
2013-06-12 05:21:00,41.2,33.8,30.23,NE,45,0.0,0.0,75,0.00,,,0.00,Weather View 32 v70,2013-06-12 13:21:00,
2013-06-12 05:26:00,41.4,33.3,30.24,NE,45,0.0,0.0,73,0.00,,,0.00,Weather View 32 v70,2013-06-12 13:26:00,
2013-06-12 05:31:00,41.0,33.3,30.24,SSE,158,0.0,0.0,74,0.00,,,0.00,Weather View 32 v70,2013-06-12 13:31:00,
2013-06-12 05:36:00,41.2,33.2,30.24,NE,45,0.0,0.0,73,0.00,,,0.00,Weather View 32 v70,2013-06-12 13:36:00,
2013-06-12 05:41:00,41.2,33.2,30.24,SE,135,0.0,0.0,73,0.00,,,0.00,Weather View 32 v70,2013-06-12 13:41:00,
2013-06-12 05:46:00,41.2,33.2,30.24,ESE,112,0.0,0.0,73,0.00,,,0.00,Weather View 32 v70,2013-06-12 13:46:00,
2013-06-12 05:51:00,41.2,33.2,30.24,ESE,112,0.0,0.0,73,0.00,,,0.00,Weather View 32 v70,2013-06-12 13:51:00,
2013-06-12 05:56:00,41.4,33.3,30.24,ESE,112,0.0,0.0,73,0.00,,,0.00,Weather View 32 v70,2013-06-12 13:56:00,
2013-06-12 06:01:00,41.5,33.9,30.24,ESE,112,0.0,0.0,74,0.00,,,0.00,Weather View 32 v70,2013-06-12 14:01:00,
2013-06-12 06:06:00,41.9,34.2,30.24,ESE,112,0.0,0.0,74,0.00,,,0.00,Weather View 32 v70,2013-06-12 14:06:00,
2013-06-12 06:11:00,41.9,34.2,30.24,ESE,112,0.0,0.0,74,0.00,,,0.00,Weather View 32 v70,2013-06-12 14:11:00,
2013-06-12 06:16:00,42.6,35.2,30.24,NNW,338,0.0,0.0,75,0.00,,,0.00,Weather View 32 v70,2013-06-12 14:16:00,
2013-06-12 06:21:00,43.0,35.3,30.24,NNW,338,0.0,0.0,74,0.00,,,0.00,Weather View 32 v70,2013-06-12 14:21:00,
2013-06-12 06:26:00,43.7,35.9,30.24,NNW,338,0.0,0.0,74,0.00,,,0.00,Weather View 32 v70,2013-06-12 14:26:00,
2013-06-12 06:31:00,44.1,35.9,30.24,NNW,338,0.0,0.0,73,0.00,,,0.00,Weather View 32 v70,2013-06-12 14:31:00,
2013-06-12 06:36:00,45.5,37.7,30.24,NNW,338,0.0,0.0,74,0.00,,,0.00,Weather View 32 v70,2013-06-12 14:36:00,
2013-06-12 06:41:00,46.2,37.7,30.24,NNW,338,0.0,0.0,72,0.00,,,0.00,Weather View 32 v70,2013-06-12 14:41:00,
2013-06-12 06:46:00,47.3,38.7,30.24,NNW,338,0.0,0.0,72,0.00,,,0.00,Weather View 32 v70,2013-06-12 14:46:00,
2013-06-12 06:51:00,48.0,39.0,30.24,NNE,22,0.0,0.0,71,0.00,,,0.00,Weather View 32 v70,2013-06-12 14:51:00,
2013-06-12 06:56:00,48.4,39.0,30.24,NNE,22,0.0,0.0,70,0.00,,,0.00,Weather View 32 v70,2013-06-12 14:56:00,
2013-06-12 07:01:00,49.1,39.7,30.24,WNW,292,0.0,0.0,70,0.00,,,0.00,Weather View 32 v70,2013-06-12 15:01:00,
2013-06-12 07:06:00,50.0,40.2,30.24,NNW,338,0.0,0.0,69,0.00,,,0.00,Weather View 32 v70,2013-06-12 15:06:00,
2013-06-12 07:11:00,50.2,40.0,30.24,NE,45,0.0,0.0,68,0.00,,,0.00,Weather View 32 v70,2013-06-12 15:11:00,
2013-06-12 07:16:00,50.9,40.7,30.24,ENE,68,0.0,0.0,68,0.00,,,0.00,Weather View 32 v70,2013-06-12 15:16:00,
2013-06-12 07:21:00,50.9,40.7,30.24,ENE,68,0.0,0.0,68,0.00,,,0.00,Weather View 32 v70,2013-06-12 15:21:00,
2013-06-12 07:26:00,51.4,40.8,30.24,ENE,68,0.0,0.0,67,0.00,,,0.00,Weather View 32 v70,2013-06-12 15:26:00,
2013-06-12 07:31:00,52.0,41.3,30.24,WNW,292,0.0,0.0,67,0.00,,,0.00,Weather View 32 v70,2013-06-12 15:31:00,
2013-06-12 07:36:00,52.3,41.3,30.24,NW,315,0.0,0.0,66,0.00,,,0.00,Weather View 32 v70,2013-06-12 15:36:00,
2013-06-12 07:41:00,52.9,41.8,30.24,NW,315,0.0,0.0,66,0.00,,,0.00,Weather View 32 v70,2013-06-12 15:41:00,
2013-06-12 07:46:00,53.4,41.9,30.23,WNW,292,0.0,0.0,65,0.00,,,0.00,Weather View 32 v70,2013-06-12 15:46:00,
2013-06-12 07:51:00,53.8,42.3,30.23,West,270,0.0,0.0,65,0.00,,,0.00,Weather View 32 v70,2013-06-12 15:51:00,
2013-06-12 07:56:00,54.3,42.8,30.23,West,270,0.0,0.0,65,0.00,,,0.00,Weather View 32 v70,2013-06-12 15:56:00,
2013-06-12 08:01:00,54.9,43.3,30.23,ESE,112,0.0,0.0,65,0.00,,,0.00,Weather View 32 v70,2013-06-12 16:01:00,
2013-06-12 08:06:00,55.8,43.3,30.23,NW,315,0.0,0.0,63,0.00,,,0.00,Weather View 32 v70,2013-06-12 16:06:00,
2013-06-12 08:11:00,56.3,43.4,30.23,SW,225,0.0,0.0,62,0.00,,,0.00,Weather View 32 v70,2013-06-12 16:11:00,
2013-06-12 08:16:00,57.2,43.4,30.23,SSW,202,1.0,0.0,60,0.00,,,0.00,Weather View 32 v70,2013-06-12 16:16:00,
2013-06-12 08:21:00,57.9,43.6,30.23,WSW,248,1.0,1.0,59,0.00,,,0.00,Weather View 32 v70,2013-06-12 16:21:00,
2013-06-12 08:26:00,58.8,43.6,30.23,West,270,1.0,1.0,57,0.00,,,0.00,Weather View 32 v70,2013-06-12 16:26:00,
2013-06-12 08:31:00,59.2,43.0,30.23,WNW,292,1.0,1.0,55,0.00,,,0.00,Weather View 32 v70,2013-06-12 16:31:00,
2013-06-12 08:36:00,59.5,43.3,30.23,West,270,2.0,2.0,55,0.00,,,0.00,Weather View 32 v70,2013-06-12 16:36:00,
2013-06-12 08:41:00,59.5,42.8,30.23,WNW,292,2.0,2.0,54,0.00,,,0.00,Weather View 32 v70,2013-06-12 16:41:00,
2013-06-12 08:46:00,60.1,42.9,30.23,West,270,2.0,2.0,53,0.00,,,0.00,Weather View 32 v70,2013-06-12 16:46:00,
2013-06-12 08:51:00,60.6,43.4,30.23,West,270,2.0,2.0,53,0.00,,,0.00,Weather View 32 v70,2013-06-12 16:51:00,
2013-06-12 08:56:00,61.5,43.7,30.23,NNW,338,2.0,2.0,52,0.00,,,0.00,Weather View 32 v70,2013-06-12 16:56:00,
2013-06-12 09:01:00,62.1,44.2,30.23,West,270,2.0,2.0,52,0.00,,,0.00,Weather View 32 v70,2013-06-12 17:01:00,
2013-06-12 09:06:00,62.2,44.4,30.22,WSW,248,2.0,2.0,52,0.00,,,0.00,Weather View 32 v70,2013-06-12 17:06:00,
2013-06-12 09:11:00,63.0,44.0,30.22,West,270,2.0,2.0,50,0.00,,,0.00,Weather View 32 v70,2013-06-12 17:11:00,
2013-06-12 09:16:00,63.7,44.1,30.22,WNW,292,1.0,2.0,49,0.00,,,0.00,Weather View 32 v70,2013-06-12 17:16:00,
2013-06-12 09:21:00,64.4,44.2,30.22,West,270,1.0,2.0,48,0.00,,,0.00,Weather View 32 v70,2013-06-12 17:21:00,
2013-06-12 09:26:00,65.3,43.9,30.22,WNW,292,2.0,2.0,46,0.00,,,0.00,Weather View 32 v70,2013-06-12 17:26:00,
2013-06-12 09:31:00,66.6,44.5,30.22,NE,45,1.0,2.0,45,0.00,,,0.00,Weather View 32 v70,2013-06-12 17:31:00,
2013-06-12 09:36:00,67.1,45.0,30.22,NNE,22,1.0,2.0,45,0.00,,,0.00,Weather View 32 v70,2013-06-12 17:36:00,
2013-06-12 09:41:00,67.8,45.1,30.22,WSW,248,1.0,2.0,44,0.00,,,0.00,Weather View 32 v70,2013-06-12 17:41:00,
2013-06-12 09:46:00,67.8,45.1,30.21,NNE,22,1.0,2.0,44,0.00,,,0.00,Weather View 32 v70,2013-06-12 17:46:00,
2013-06-12 09:51:00,68.2,45.4,30.21,NNE,22,1.0,2.0,44,0.00,,,0.00,Weather View 32 v70,2013-06-12 17:51:00,
2013-06-12 09:56:00,69.8,45.0,30.21,ENE,68,1.0,2.0,41,0.00,,,0.00,Weather View 32 v70,2013-06-12 17:56:00,
2013-06-12 10:01:00,71.6,45.3,30.21,West,270,1.0,2.0,39,0.00,,,0.00,Weather View 32 v70,2013-06-12 18:01:00,
2013-06-12 10:06:00,73.4,46.2,30.20,NW,315,1.0,2.0,38,0.00,,,0.00,Weather View 32 v70,2013-06-12 18:06:00,
2013-06-12 10:11:00,74.8,46.7,30.20,NW,315,1.0,2.0,37,0.00,,,0.00,Weather View 32 v70,2013-06-12 18:11:00,
2013-06-12 10:16:00,76.1,45.6,30.20,West,270,1.0,2.0,34,0.00,,,0.00,Weather View 32 v70,2013-06-12 18:16:00,
2013-06-12 10:21:00,77.2,45.8,30.20,WNW,292,2.0,2.0,33,0.00,,,0.00,Weather View 32 v70,2013-06-12 18:21:00,
2013-06-12 10:26:00,78.3,47.5,30.19,NNW,338,1.0,2.0,34,0.00,,,0.00,Weather View 32 v70,2013-06-12 18:26:00,
2013-06-12 10:31:00,79.3,46.8,30.19,NNE,22,1.0,2.0,32,0.00,,,0.00,Weather View 32 v70,2013-06-12 18:31:00,
2013-06-12 10:36:00,80.8,48.1,30.19,ESE,112,1.0,2.0,32,0.00,,,0.00,Weather View 32 v70,2013-06-12 18:36:00,
2013-06-12 10:41:00,81.7,47.1,30.19,West,270,1.0,2.0,30,0.00,,,0.00,Weather View 32 v70,2013-06-12 18:41:00,
2013-06-12 10:46:00,81.5,47.0,30.18,NNE,22,1.0,2.0,30,0.00,,,0.00,Weather View 32 v70,2013-06-12 18:46:00,
2013-06-12 10:51:00,82.2,46.7,30.18,NE,45,1.0,2.0,29,0.00,,,0.00,Weather View 32 v70,2013-06-12 18:51:00,
2013-06-12 10:56:00,82.2,47.6,30.18,ENE,68,1.0,2.0,30,0.00,,,0.00,Weather View 32 v70,2013-06-12 18:56:00,
2013-06-12 11:01:00,81.1,46.7,30.18,NNE,22,1.0,2.0,30,0.00,,,0.00,Weather View 32 v70,2013-06-12 19:01:00,
2013-06-12 11:06:00,79.7,45.4,30.18,NE,45,1.0,2.0,30,0.00,,,0.00,Weather View 32 v70,2013-06-12 19:06:00,
2013-06-12 11:11:00,80.1,45.7,30.18,NNE,22,1.0,2.0,30,0.00,,,0.00,Weather View 32 v70,2013-06-12 19:11:00,
2013-06-12 11:16:00,77.7,44.6,30.18,NNE,22,2.0,2.0,31,0.00,,,0.00,Weather View 32 v70,2013-06-12 19:16:00,
2013-06-12 11:21:00,77.9,45.6,30.18,North,0,2.0,2.0,32,0.00,,,0.00,Weather View 32 v70,2013-06-12 19:21:00,
2013-06-12 11:26:00,78.1,44.0,30.17,NNW,338,3.0,3.0,30,0.00,,,0.00,Weather View 32 v70,2013-06-12 19:26:00,
2013-06-12 11:31:00,77.2,44.1,30.17,North,0,3.0,3.0,31,0.00,,,0.00,Weather View 32 v70,2013-06-12 19:31:00,
2013-06-12 11:36:00,76.6,42.8,30.17,NE,45,2.0,3.0,30,0.00,,,0.00,Weather View 32 v70,2013-06-12 19:36:00,
2013-06-12 11:41:00,75.6,43.5,30.17,NNE,22,3.0,3.0,32,0.00,,,0.00,Weather View 32 v70,2013-06-12 19:41:00,
2013-06-12 11:46:00,75.4,43.4,30.18,NNE,22,3.0,3.0,32,0.00,,,0.00,Weather View 32 v70,2013-06-12 19:46:00,
2013-06-12 11:51:00,81.1,44.8,30.18,SSE,158,3.0,3.0,28,0.00,,,0.00,Weather View 32 v70,2013-06-12 19:51:00,
2013-06-12 11:56:00,83.8,45.2,30.18,ENE,68,3.0,3.0,26,0.00,,,0.00,Weather View 32 v70,2013-06-12 19:56:00,
2013-06-12 12:01:00,86.0,44.9,30.18,ENE,68,2.0,3.0,24,0.00,,,0.00,Weather View 32 v70,2013-06-12 20:01:00,
2013-06-12 12:10:00,86.4,44.1,30.17,NE,45,3.0,3.0,23,0.00,,,0.00,Weather View 32 v70,2013-06-12 20:10:00,
2013-06-12 12:15:00,87.3,44.8,30.17,NNE,22,3.0,3.0,23,0.00,,,0.00,Weather View 32 v70,2013-06-12 20:15:00,
2013-06-12 12:20:00,87.6,44.0,30.17,NW,315,3.0,3.0,22,0.00,,,0.00,Weather View 32 v70,2013-06-12 20:20:00,
2013-06-12 12:30:00,87.4,45.0,30.17,North,0,3.0,3.0,23,0.00,,,0.00,Weather View 32 v70,2013-06-12 20:30:00,
2013-06-12 12:40:00,89.8,45.7,30.17,NNE,22,3.0,3.0,22,0.00,,,0.00,Weather View 32 v70,2013-06-12 20:40:00,
2013-06-12 12:45:00,90.5,45.1,30.17,SE,135,2.0,3.0,21,0.00,,,0.00,Weather View 32 v70,2013-06-12 20:45:00,
2013-06-12 12:55:00,91.4,44.6,30.17,ENE,68,2.0,3.0,20,0.00,,,0.00,Weather View 32 v70,2013-06-12 20:55:00,
2013-06-12 13:00:00,90.0,43.4,30.17,ENE,68,3.0,3.0,20,0.00,,,0.00,Weather View 32 v70,2013-06-12 21:00:00,
2013-06-12 13:10:00,91.2,45.7,30.17,NNE,22,3.0,4.0,21,0.00,,,0.00,Weather View 32 v70,2013-06-12 21:10:00,
2013-06-12 13:20:00,91.9,45.0,30.17,ESE,112,3.0,4.0,20,0.00,,,0.00,Weather View 32 v70,2013-06-12 21:20:00,
2013-06-12 13:25:00,92.3,45.3,30.17,NNE,22,3.0,4.0,20,0.00,,,0.00,Weather View 32 v70,2013-06-12 21:25:00,
2013-06-12 13:35:00,92.8,44.4,30.17,WNW,292,3.0,4.0,19,0.00,,,0.00,Weather View 32 v70,2013-06-12 21:35:00,
2013-06-12 13:40:00,92.3,43.9,30.17,ENE,68,4.0,4.0,19,0.00,,,0.00,Weather View 32 v70,2013-06-12 21:40:00,
2013-06-12 13:45:00,91.2,43.1,30.17,WNW,292,4.0,4.0,19,0.00,,,0.00,Weather View 32 v70,2013-06-12 21:45:00,
2013-06-12 13:50:00,91.8,43.5,30.17,NE,45,3.0,4.0,19,0.00,,,0.00,Weather View 32 v70,2013-06-12 21:50:00,
2013-06-12 14:00:00,91.9,43.6,30.17,NE,45,3.0,4.0,19,0.00,,,0.00,Weather View 32 v70,2013-06-12 22:00:00,
2013-06-12 14:05:00,91.4,43.2,30.17,NNW,338,3.0,4.0,19,0.00,,,0.00,Weather View 32 v70,2013-06-12 22:05:00,
2013-06-12 14:15:00,91.4,41.8,30.17,NNE,22,4.0,4.0,18,0.00,,,0.00,Weather View 32 v70,2013-06-12 22:15:00,
2013-06-12 14:20:00,92.3,41.0,30.17,NE,45,4.0,4.0,17,0.00,,,0.00,Weather View 32 v70,2013-06-12 22:20:00,
2013-06-12 14:25:00,93.4,40.3,30.17,West,270,3.0,4.0,16,0.00,,,0.00,Weather View 32 v70,2013-06-12 22:25:00,
2013-06-12 14:30:00,92.3,42.5,30.17,NNE,22,3.0,4.0,18,0.00,,,0.00,Weather View 32 v70,2013-06-12 22:30:00,
2013-06-12 14:40:00,93.4,43.4,30.17,NNW,338,3.0,4.0,18,0.00,,,0.00,Weather View 32 v70,2013-06-12 22:40:00,
2013-06-12 14:45:00,92.3,42.5,30.17,West,270,3.0,4.0,18,0.00,,,0.00,Weather View 32 v70,2013-06-12 22:45:00,
2013-06-12 14:50:00,93.4,44.8,30.17,NNW,338,2.0,4.0,19,0.00,,,0.00,Weather View 32 v70,2013-06-12 22:50:00,
2013-06-12 15:00:00,91.8,43.5,30.17,WNW,292,4.0,4.0,19,0.00,,,0.00,Weather View 32 v70,2013-06-12 23:00:00,
2013-06-12 15:10:00,92.3,45.3,30.17,WSW,248,4.0,4.0,20,0.00,,,0.00,Weather View 32 v70,2013-06-12 23:10:00,
2013-06-12 15:15:00,92.3,43.9,30.17,NNE,22,3.0,4.0,19,0.00,,,0.00,Weather View 32 v70,2013-06-12 23:15:00,
2013-06-12 15:20:00,90.5,42.5,30.17,NNE,22,3.0,4.0,19,0.00,,,0.00,Weather View 32 v70,2013-06-12 23:20:00,
2013-06-12 15:30:00,86.7,40.7,30.17,NNE,22,4.0,4.0,20,0.00,,,0.00,Weather View 32 v70,2013-06-12 23:30:00,
2013-06-12 15:35:00,81.7,39.0,30.17,West,270,3.0,4.0,22,0.00,,,0.00,Weather View 32 v70,2013-06-12 23:35:00,
2013-06-12 15:40:00,83.5,40.5,30.17,WSW,248,2.0,4.0,22,0.00,,,0.00,Weather View 32 v70,2013-06-12 23:40:00,
2013-06-12 15:45:00,88.2,43.2,30.16,WSW,248,3.0,4.0,21,0.00,,,0.00,Weather View 32 v70,2013-06-12 23:45:00,
2013-06-12 15:55:00,89.1,41.3,30.16,NE,45,3.0,4.0,19,0.00,,,0.00,Weather View 32 v70,2013-06-12 23:55:00,
2013-06-12 16:00:00,88.9,41.2,30.16,ENE,68,3.0,4.0,19,0.00,,,0.00,Weather View 32 v70,2013-06-13 00:00:00,
2013-06-12 16:05:00,87.6,41.5,30.16,NNE,22,4.0,4.0,20,0.00,,,0.00,Weather View 32 v70,2013-06-13 00:05:00,
2013-06-12 16:10:00,87.3,42.4,30.16,NE,45,4.0,4.0,21,0.00,,,0.00,Weather View 32 v70,2013-06-13 00:10:00,
2013-06-12 16:20:00,82.8,41.1,30.16,North,0,4.0,4.0,23,0.00,,,0.00,Weather View 32 v70,2013-06-13 00:20:00,
2013-06-12 16:25:00,81.7,40.2,30.16,NNE,22,4.0,4.0,23,0.00,,,0.00,Weather View 32 v70,2013-06-13 00:25:00,
2013-06-12 16:30:00,81.1,40.8,30.16,NNW,338,4.0,4.0,24,0.00,,,0.00,Weather View 32 v70,2013-06-13 00:30:00,
2013-06-12 16:35:00,80.4,40.2,30.16,NNE,22,3.0,4.0,24,0.00,,,0.00,Weather View 32 v70,2013-06-13 00:35:00,
2013-06-12 16:45:00,78.4,38.6,30.16,ENE,68,4.0,4.0,24,0.00,,,0.00,Weather View 32 v70,2013-06-13 00:45:00,
2013-06-12 16:55:00,77.9,39.1,30.16,NNW,338,4.0,4.0,25,0.00,,,0.00,Weather View 32 v70,2013-06-13 00:55:00,
2013-06-12 17:00:00,78.1,39.3,30.16,NW,315,4.0,4.0,25,0.00,,,0.00,Weather View 32 v70,2013-06-13 01:00:00,
2013-06-12 17:10:00,78.4,39.6,30.15,NNE,22,3.0,4.0,25,0.00,,,0.00,Weather View 32 v70,2013-06-13 01:10:00,
2013-06-12 17:15:00,78.3,39.5,30.15,NNE,22,3.0,4.0,25,0.00,,,0.00,Weather View 32 v70,2013-06-13 01:15:00,
2013-06-12 17:20:00,78.1,39.3,30.15,SE,135,4.0,4.0,25,0.00,,,0.00,Weather View 32 v70,2013-06-13 01:20:00,
2013-06-12 17:25:00,77.9,41.1,30.14,North,0,2.0,4.0,27,0.00,,,0.00,Weather View 32 v70,2013-06-13 01:25:00,
2013-06-12 17:35:00,78.1,41.3,30.14,North,0,4.0,4.0,27,0.00,,,0.00,Weather View 32 v70,2013-06-13 01:35:00,
2013-06-12 17:40:00,77.7,40.0,30.14,West,270,5.0,5.0,26,0.00,,,0.00,Weather View 32 v70,2013-06-13 01:40:00,
2013-06-12 17:46:00,77.7,39.0,30.15,NE,45,4.0,5.0,25,0.00,,,0.00,Weather View 32 v70,2013-06-13 01:46:00,
2013-06-12 17:55:00,77.7,41.0,30.15,NNE,22,3.0,5.0,27,0.00,,,0.00,Weather View 32 v70,2013-06-13 01:55:00,
2013-06-12 18:05:00,77.4,40.7,30.15,ESE,112,3.0,5.0,27,0.00,,,0.00,Weather View 32 v70,2013-06-13 02:05:00,
2013-06-12 18:10:00,77.5,39.9,30.15,NNE,22,3.0,5.0,26,0.00,,,0.00,Weather View 32 v70,2013-06-13 02:10:00,
2013-06-12 18:20:00,77.4,38.7,30.15,WNW,292,3.0,5.0,25,0.00,,,0.00,Weather View 32 v70,2013-06-13 02:20:00,
2013-06-12 18:30:00,77.2,38.5,30.14,North,0,3.0,5.0,25,0.00,,,0.00,Weather View 32 v70,2013-06-13 02:30:00,
2013-06-12 18:35:00,77.4,38.7,30.14,North,0,3.0,5.0,25,0.00,,,0.00,Weather View 32 v70,2013-06-13 02:35:00,
2013-06-12 18:40:00,77.5,38.8,30.14,North,0,3.0,5.0,25,0.00,,,0.00,Weather View 32 v70,2013-06-13 02:40:00,
2013-06-12 18:45:00,77.4,38.7,30.15,NNE,22,4.0,4.0,25,0.00,,,0.00,Weather View 32 v70,2013-06-13 02:45:00,
2013-06-12 18:50:00,77.2,38.5,30.15,WSW,248,3.0,4.0,25,0.00,,,0.00,Weather View 32 v70,2013-06-13 02:50:00,
2013-06-12 19:00:00,77.0,38.4,30.15,WNW,292,3.0,4.0,25,0.00,,,0.00,Weather View 32 v70,2013-06-13 03:00:00,
2013-06-12 19:05:00,77.0,38.4,30.14,NW,315,4.0,4.0,25,0.00,,,0.00,Weather View 32 v70,2013-06-13 03:05:00,
2013-06-12 19:15:00,77.2,42.4,30.14,SW,225,4.0,4.0,29,0.00,,,0.00,Weather View 32 v70,2013-06-13 03:15:00,
2013-06-12 19:20:00,76.8,42.9,30.14,WSW,248,4.0,4.0,30,0.00,,,0.00,Weather View 32 v70,2013-06-13 03:20:00,
2013-06-12 19:25:00,76.1,43.2,30.14,West,270,4.0,5.0,31,0.00,,,0.00,Weather View 32 v70,2013-06-13 03:25:00,
2013-06-12 19:30:00,75.6,43.5,30.14,West,270,4.0,5.0,32,0.00,,,0.00,Weather View 32 v70,2013-06-13 03:30:00,
2013-06-12 19:35:00,74.8,42.9,30.14,West,270,5.0,5.0,32,0.00,,,0.00,Weather View 32 v70,2013-06-13 03:35:00,
2013-06-12 19:40:00,74.7,42.8,30.14,NW,315,5.0,5.0,32,0.00,,,0.00,Weather View 32 v70,2013-06-13 03:40:00,
2013-06-12 19:45:00,74.3,43.3,30.16,West,270,4.0,5.0,33,0.00,,,0.00,Weather View 32 v70,2013-06-13 03:45:00,
2013-06-12 19:50:00,74.3,43.3,30.16,South,180,4.0,5.0,33,0.00,,,0.00,Weather View 32 v70,2013-06-13 03:50:00,
2013-06-12 19:55:00,74.1,43.1,30.16,West,270,4.0,5.0,33,0.00,,,0.00,Weather View 32 v70,2013-06-13 03:55:00,
2013-06-12 20:00:00,73.6,42.6,30.16,NW,315,4.0,5.0,33,0.00,,,0.00,Weather View 32 v70,2013-06-13 04:00:00,
2013-06-12 20:01:00,73.4,42.5,30.16,West,270,4.0,5.0,33,0.00,,,0.00,Weather View 32 v70,2013-06-13 04:01:00,
2013-06-12 20:06:00,72.9,42.8,30.16,West,270,4.0,5.0,34,0.00,,,0.00,Weather View 32 v70,2013-06-13 04:06:00,
2013-06-12 20:11:00,72.5,44.7,30.16,West,270,3.0,5.0,37,0.00,,,0.00,Weather View 32 v70,2013-06-13 04:11:00,
2013-06-12 20:16:00,72.3,45.2,30.16,West,270,3.0,5.0,38,0.00,,,0.00,Weather View 32 v70,2013-06-13 04:16:00,
2013-06-12 20:21:00,72.0,44.9,30.16,NW,315,3.0,5.0,38,0.00,,,0.00,Weather View 32 v70,2013-06-13 04:21:00,
2013-06-12 20:26:00,71.8,44.7,30.17,WSW,248,3.0,5.0,38,0.00,,,0.00,Weather View 32 v70,2013-06-13 04:26:00,
2013-06-12 20:31:00,71.2,44.3,30.17,South,180,3.0,5.0,38,0.00,,,0.00,Weather View 32 v70,2013-06-13 04:31:00,
2013-06-12 20:36:00,70.2,44.0,30.17,WNW,292,3.0,5.0,39,0.00,,,0.00,Weather View 32 v70,2013-06-13 04:36:00,
2013-06-12 20:41:00,68.9,43.5,30.17,WSW,248,4.0,5.0,40,0.00,,,0.00,Weather View 32 v70,2013-06-13 04:41:00,
2013-06-12 20:46:00,68.4,43.0,30.17,WSW,248,4.0,4.0,40,0.00,,,0.00,Weather View 32 v70,2013-06-13 04:46:00,
2013-06-12 20:51:00,68.2,42.9,30.17,WSW,248,3.0,4.0,40,0.00,,,0.00,Weather View 32 v70,2013-06-13 04:51:00,
2013-06-12 20:56:00,68.2,42.9,30.17,West,270,3.0,4.0,40,0.00,,,0.00,Weather View 32 v70,2013-06-13 04:56:00,
2013-06-12 21:01:00,67.8,43.2,30.17,NW,315,3.0,4.0,41,0.00,,,0.00,Weather View 32 v70,2013-06-13 05:01:00,
2013-06-12 21:06:00,67.8,43.8,30.18,WNW,292,3.0,4.0,42,0.00,,,0.00,Weather View 32 v70,2013-06-13 05:06:00,
2013-06-12 21:11:00,67.5,42.9,30.18,SW,225,2.0,4.0,41,0.00,,,0.00,Weather View 32 v70,2013-06-13 05:11:00,
2013-06-12 21:16:00,67.5,42.9,30.18,SW,225,3.0,4.0,41,0.00,,,0.00,Weather View 32 v70,2013-06-13 05:16:00,
2013-06-12 21:21:00,67.5,42.9,30.18,West,270,2.0,4.0,41,0.00,,,0.00,Weather View 32 v70,2013-06-13 05:21:00,
2013-06-12 21:26:00,67.5,42.9,30.18,West,270,2.0,4.0,41,0.00,,,0.00,Weather View 32 v70,2013-06-13 05:26:00,
2013-06-12 21:31:00,67.1,43.2,30.18,NNW,338,2.0,4.0,42,0.00,,,0.00,Weather View 32 v70,2013-06-13 05:31:00,
2013-06-12 21:36:00,67.1,43.2,30.18,SW,225,2.0,4.0,42,0.00,,,0.00,Weather View 32 v70,2013-06-13 05:36:00,
2013-06-12 21:41:00,66.7,43.5,30.18,WSW,248,3.0,4.0,43,0.00,,,0.00,Weather View 32 v70,2013-06-13 05:41:00,
2013-06-12 21:46:00,66.6,43.3,30.19,WSW,248,2.0,4.0,43,0.00,,,0.00,Weather View 32 v70,2013-06-13 05:46:00,
2013-06-12 21:51:00,66.4,43.1,30.19,West,270,2.0,3.0,43,0.00,,,0.00,Weather View 32 v70,2013-06-13 05:51:00,
2013-06-12 21:56:00,66.0,42.8,30.19,NW,315,2.0,3.0,43,0.00,,,0.00,Weather View 32 v70,2013-06-13 05:56:00,
2013-06-12 22:01:00,65.3,42.8,30.19,SW,225,2.0,3.0,44,0.00,,,0.00,Weather View 32 v70,2013-06-13 06:01:00,
2013-06-12 22:06:00,64.6,42.7,30.20,South,180,2.0,3.0,45,0.00,,,0.00,Weather View 32 v70,2013-06-13 06:06:00,
2013-06-12 22:11:00,63.9,42.6,30.20,SSW,202,2.0,3.0,46,0.00,,,0.00,Weather View 32 v70,2013-06-13 06:11:00,
2013-06-12 22:16:00,63.5,42.3,30.20,SW,225,1.0,3.0,46,0.00,,,0.00,Weather View 32 v70,2013-06-13 06:16:00,
2013-06-12 22:21:00,62.8,42.2,30.20,SE,135,1.0,3.0,47,0.00,,,0.00,Weather View 32 v70,2013-06-13 06:21:00,
2013-06-12 22:26:00,62.4,41.9,30.20,West,270,1.0,3.0,47,0.00,,,0.00,Weather View 32 v70,2013-06-13 06:26:00,
2013-06-12 22:31:00,62.1,41.5,30.20,WSW,248,1.0,3.0,47,0.00,,,0.00,Weather View 32 v70,2013-06-13 06:31:00,
2013-06-12 22:36:00,61.7,41.8,30.20,WNW,292,1.0,3.0,48,0.00,,,0.00,Weather View 32 v70,2013-06-13 06:36:00,
2013-06-12 22:41:00,61.2,41.8,30.20,WSW,248,1.0,3.0,49,0.00,,,0.00,Weather View 32 v70,2013-06-13 06:41:00,
2013-06-12 22:46:00,60.6,41.8,30.20,SW,225,1.0,2.0,50,0.00,,,0.00,Weather View 32 v70,2013-06-13 06:46:00,
2013-06-12 22:51:00,60.1,41.3,30.20,SW,225,1.0,2.0,50,0.00,,,0.00,Weather View 32 v70,2013-06-13 06:51:00,
2013-06-12 22:56:00,59.5,41.4,30.20,SW,225,1.0,2.0,51,0.00,,,0.00,Weather View 32 v70,2013-06-13 06:56:00,
2013-06-12 23:01:00,59.5,41.4,30.20,WSW,248,1.0,2.0,51,0.00,,,0.00,Weather View 32 v70,2013-06-13 07:01:00,
2013-06-12 23:06:00,59.0,41.4,30.20,WSW,248,1.0,2.0,52,0.00,,,0.00,Weather View 32 v70,2013-06-13 07:06:00,
2013-06-12 23:11:00,58.8,41.2,30.20,West,270,1.0,2.0,52,0.00,,,0.00,Weather View 32 v70,2013-06-13 07:11:00,
2013-06-12 23:16:00,58.3,41.2,30.20,WSW,248,1.0,1.0,53,0.00,,,0.00,Weather View 32 v70,2013-06-13 07:16:00,
2013-06-12 23:21:00,57.7,41.2,30.20,WSW,248,1.0,1.0,54,0.00,,,0.00,Weather View 32 v70,2013-06-13 07:21:00,
2013-06-12 23:26:00,57.4,41.3,30.21,South,180,1.0,1.0,55,0.00,,,0.00,Weather View 32 v70,2013-06-13 07:26:00,
2013-06-12 23:31:00,56.3,40.3,30.21,SE,135,0.0,1.0,55,0.00,,,0.00,Weather View 32 v70,2013-06-13 07:31:00,
2013-06-12 23:36:00,55.9,40.9,30.21,SW,225,0.0,1.0,57,0.00,,,0.00,Weather View 32 v70,2013-06-13 07:36:00,
2013-06-12 23:41:00,55.2,41.1,30.21,SSW,202,0.0,1.0,59,0.00,,,0.00,Weather View 32 v70,2013-06-13 07:41:00,
2013-06-12 23:46:00,55.0,40.9,30.21,West,270,0.0,1.0,59,0.00,,,0.00,Weather View 32 v70,2013-06-13 07:46:00,
2013-06-12 23:51:00,54.3,40.7,30.21,WSW,248,0.0,1.0,60,0.00,,,0.00,Weather View 32 v70,2013-06-13 07:51:00,
2013-06-12 23:56:00,54.1,40.5,30.21,SW,225,0.0,1.0,60,0.00,,,0.00,Weather View 32 v70,2013-06-13 07:56:00,